カタログに戻る

FENGYUN 1C DEB *

運用中SSO
NORAD 47104·DEBRIS·🇨🇳 China

打ち上げ May 10, 1999 から Taiyuan Satellite Launch Center

Loading…

次のパス (今後24時間)

TLE

最新Source: Space-Track

元期: Sep 12, 2026, 07:44 UTC

1 47104U 99025FCC 26255.32224893  .00000214  00000-0  12193-3 0  9990
2 47104  98.8805 291.0216 0039606 272.4937  87.1705 14.19650908662549

AllMySatでFENGYUN 1C DEB *をリアルタイム追跡

Download on the App Store